Location: Bukit Lungun
(2.6833°N, 113.9667°E)
Time: 11:00:25
(UTC+00:00)

SJ-7 - Pass Details

Date: 02 March 2021
Orbit: 556 x 601 km, 97.7° (Epoch: 21 April)

Event Time Altitude Azimuth Distance (km) Brightness Sun altitude
Rises 21:49:35 0° 8° (N) 2,742 7.9 -11.9°
Reaches altitude 10° 21:51:42 10° 7° (N) 1,854 7.0 -11.3°
Maximum altitude 21:55:43 75° 281° (WNW) 593 4.3 -10.3°
Drops below altitude 10° 21:59:47 10° 196° (SSW) 1,887 7.0 -9.3°
Sets 22:01:58 0° 194° (SSW) 2,795 7.8 -8.8°
